| time (UTC) | temp F | wind direction | speed MPH | gust MPH | rain 1hr in | rain 24hr in | rain mn in | humidity % | barometer mb |
| 20260504045505 | 41 | 296 | 0.0 | 0.0 | 0.00 | 0.00 | 0.00 | 74 | 1014.7 |
| 20260504045005 | 41 | 296 | 0.0 | 0.0 | 0.00 | 0.00 | 0.00 | 73 | 1014.8 |
| 20260504044004 | 41 | 296 | 0.0 | 0.0 | 0.00 | 0.00 | 0.00 | 73 | 1014.8 |
| 20260504043505 | 41 | 296 | 0.0 | 0.0 | 0.00 | 0.00 | 0.00 | 72 | 1014.8 |
| 20260504043005 | 41 | 296 | 0.0 | 0.0 | 0.00 | 0.00 | 0.00 | 72 | 1014.7 |
| 20260504042505 | 42 | 296 | 0.0 | 0.0 | 0.00 | 0.00 | 0.00 | 72 | 1014.8 |
| 20260504042005 | 42 | 296 | 0.0 | 0.0 | 0.00 | 0.00 | 0.00 | 72 | 1014.8 |
| 20260504041505 | 42 | 296 | 0.0 | 0.0 | 0.00 | 0.00 | 0.00 | 71 | 1014.8 |
| 20260504041005 | 42 | 296 | 0.0 | 0.0 | 0.00 | 0.00 | 0.00 | 71 | 1014.7 |
| 20260504040505 | 42 | 296 | 0.0 | 0.0 | 0.00 | 0.00 | 0.00 | 71 | 1014.7 |
| 20260504035004 | 43 | 296 | 0.0 | 0.0 | 0.00 | 0.00 | 0.00 | 70 | 1014.6 |
| 20260504034505 | 43 | 296 | 0.0 | 0.0 | 0.00 | 0.00 | 0.00 | 69 | 1014.6 |
| 20260504034004 | 43 | 296 | 0.0 | 0.0 | 0.00 | 0.00 | 0.00 | 68 | 1014.6 |
| 20260504033505 | 43 | 296 | 0.0 | 0.0 | 0.00 | 0.00 | 0.00 | 68 | 1014.6 |
| 20260504033005 | 44 | 296 | 0.0 | 0.0 | 0.00 | 0.00 | 0.00 | 67 | 1014.7 |
| 20260504032505 | 44 | 296 | 0.0 | 0.0 | 0.00 | 0.00 | 0.00 | 66 | 1014.7 |
| 20260504032004 | 44 | 296 | 0.0 | 0.0 | 0.00 | 0.00 | 0.00 | 65 | 1014.8 |
| 20260504031505 | 44 | 296 | 0.0 | 0.0 | 0.00 | 0.00 | 0.00 | 65 | 1014.7 |
| 20260504030005 | 45 | 296 | 0.0 | 0.0 | 0.00 | 0.00 | 0.00 | 62 | 1014.5 |
| 20260504025504 | 45 | 296 | 0.0 | 0.0 | 0.00 | 0.00 | 0.00 | 61 | 1014.5 |
| 20260504025005 | 46 | 296 | 0.0 | 0.0 | 0.00 | 0.00 | 0.00 | 61 | 1014.4 |
| 20260504024505 | 46 | 296 | 0.0 | 0.0 | 0.00 | 0.00 | 0.00 | 61 | 1014.4 |
| 20260504023506 | 47 | 296 | 0.0 | 0.0 | 0.00 | 0.00 | 0.00 | 61 | 1014.4 |
| 20260504023004 | 47 | 296 | 0.0 | 0.0 | 0.00 | 0.00 | 0.00 | 60 | 1014.4 |
| 20260504022504 | 47 | 296 | 0.0 | 0.0 | 0.00 | 0.00 | 0.00 | 60 | 1014.3 |
| 20260504021504 | 48 | 296 | 0.0 | 0.0 | 0.00 | 0.00 | 0.00 | 59 | 1014.3 |
| 20260504021005 | 48 | 296 | 0.0 | 0.0 | 0.00 | 0.00 | 0.00 | 58 | 1014.2 |
| 20260504020004 | 49 | 296 | 0.0 | 0.0 | 0.00 | 0.00 | 0.00 | 55 | 1014.1 |
| 20260504015504 | 49 | 296 | 0.0 | 0.0 | 0.00 | 0.00 | 0.00 | 53 | 1014.2 |
| 20260504014503 | 50 | 296 | 0.0 | 0.0 | 0.00 | 0.00 | 0.00 | 52 | 1014.0 |
| 20260504014004 | 50 | 296 | 0.0 | 0.0 | 0.00 | 0.00 | 0.00 | 51 | 1014.0 |
| 20260504013504 | 51 | 296 | 0.0 | 0.0 | 0.00 | 0.00 | 0.00 | 51 | 1013.9 |
| 20260504013004 | 52 | 296 | 0.0 | 0.0 | 0.00 | 0.00 | 0.00 | 48 | 1013.9 |
| 20260504012504 | 52 | 296 | 0.0 | 0.0 | 0.00 | 0.00 | 0.00 | 48 | 1013.9 |
| 20260504011004 | 53 | 296 | 0.0 | 0.0 | 0.00 | 0.00 | 0.00 | 43 | 1013.8 |
| 20260504010004 | 54 | 296 | 0.0 | 0.0 | 0.00 | 0.00 | 0.00 | 42 | 1013.7 |
| 20260504005504 | 55 | 296 | 0.0 | 0.0 | 0.00 | 0.00 | 0.00 | 41 | 1013.8 |
| 20260504005004 | 55 | 296 | 0.0 | 0.0 | 0.00 | 0.00 | 0.00 | 41 | 1013.7 |
| 20260504004004 | 56 | 296 | 0.0 | 0.0 | 0.00 | 0.00 | 0.00 | 39 | 1013.7 |
| 20260504003504 | 56 | 296 | 0.0 | 0.0 | 0.00 | 0.00 | 0.00 | 38 | 1013.6 |
| 20260504003003 | 56 | 296 | 0.0 | 0.0 | 0.00 | 0.00 | 0.00 | 38 | 1013.6 |
| 20260504002003 | 57 | 294 | 0.0 | 0.0 | 0.00 | 0.00 | 0.00 | 37 | 1013.5 |
| 20260504001504 | 57 | 295 | 0.0 | 0.0 | 0.00 | 0.00 | 0.00 | 37 | 1013.4 |
| 20260504001004 | 57 | 298 | 0.0 | 0.0 | 0.00 | 0.00 | 0.00 | 36 | 1013.5 |
| 20260504000504 | 57 | 298 | 0.0 | 0.0 | 0.00 | 0.00 | 0.00 | 36 | 1013.4 |
| 20260504000003 | 58 | 297 | 0.0 | 0.0 | 0.00 | 0.00 | 0.00 | 36 | 1013.4 |
| 20260503235503 | 58 | 296 | 0.0 | 0.0 | 0.00 | 0.00 | 0.00 | 35 | 1013.3 |
| 20260503235004 | 58 | 328 | 0.0 | 1.0 | 0.00 | 0.00 | 0.00 | 35 | 1013.3 |
| 20260503234008 | 58 | 307 | 0.0 | 8.0 | 0.00 | 0.00 | 0.00 | 34 | 1013.2 |
| 20260503233509 | 58 | 295 | 0.0 | 2.0 | 0.00 | 0.00 | 0.00 | 34 | 1013.2 |
| 20260503233008 | 59 | 290 | 0.0 | 3.0 | 0.00 | 0.00 | 0.00 | 34 | 1013.2 |
| 20260503231508 | 59 | 323 | 0.0 | 1.0 | 0.00 | 0.00 | 0.00 | 33 | 1013.1 |
| 20260503231008 | 59 | 300 | 1.0 | 8.0 | 0.00 | 0.00 | 0.00 | 33 | 1013.0 |
| 20260503230509 | 60 | 308 | 0.0 | 8.0 | 0.00 | 0.00 | 0.00 | 33 | 1012.8 |
| 20260503230008 | 60 | 300 | 1.0 | 5.0 | 0.00 | 0.00 | 0.00 | 33 | 1012.9 |
| 20260503225508 | 60 | 348 | 0.0 | 5.0 | 0.00 | 0.00 | 0.00 | 32 | 1012.9 |
| 20260503224008 | 60 | 305 | 0.0 | 7.0 | 0.00 | 0.00 | 0.00 | 32 | 1013.0 |
| 20260503223508 | 60 | 320 | 1.0 | 13.0 | 0.00 | 0.00 | 0.00 | 32 | 1013.0 |
| 20260503223009 | 61 | 312 | 0.0 | 2.0 | 0.00 | 0.00 | 0.00 | 33 | 1013.0 |
| 20260503222508 | 61 | 291 | 1.0 | 9.0 | 0.00 | 0.00 | 0.00 | 33 | 1013.0 |
| 20260503222009 | 61 | 320 | 1.0 | 12.0 | 0.00 | 0.00 | 0.00 | 31 | 1013.1 |
| 20260503221509 | 61 | 288 | 0.0 | 5.0 | 0.00 | 0.00 | 0.00 | 33 | 1013.1 |
| 20260503221009 | 61 | 279 | 0.0 | 1.0 | 0.00 | 0.00 | 0.00 | 32 | 1013.2 |
| 20260503220009 | 61 | 313 | 0.0 | 2.0 | 0.00 | 0.00 | 0.00 | 32 | 1013.3 |
| 20260503215508 | 61 | 277 | 0.0 | 2.0 | 0.00 | 0.00 | 0.00 | 32 | 1013.2 |
| 20260503214509 | 61 | 309 | 1.0 | 12.0 | 0.00 | 0.00 | 0.00 | 32 | 1013.2 |
| 20260503213508 | 61 | 321 | 1.0 | 9.0 | 0.00 | 0.00 | 0.00 | 31 | 1013.2 |
| 20260503213008 | 61 | 335 | 3.0 | 12.0 | 0.00 | 0.00 | 0.00 | 32 | 1013.2 |
| 20260503212508 | 61 | 338 | 1.0 | 12.0 | 0.00 | 0.00 | 0.00 | 33 | 1013.2 |
| 20260503212009 | 61 | 290 | 3.0 | 12.0 | 0.00 | 0.00 | 0.00 | 31 | 1013.1 |
| 20260503211509 | 61 | 277 | 1.0 | 8.0 | 0.00 | 0.00 | 0.00 | 33 | 1013.2 |
| 20260503211008 | 61 | 294 | 2.0 | 8.0 | 0.00 | 0.00 | 0.00 | 33 | 1013.1 |
| 20260503210508 | 61 | 282 | 6.0 | 14.0 | 0.00 | 0.00 | 0.00 | 33 | 1013.1 |
| 20260503210008 | 60 | 330 | 2.0 | 10.0 | 0.00 | 0.00 | 0.00 | 32 | 1013.2 |
| 20260503205508 | 60 | 274 | 1.0 | 12.0 | 0.00 | 0.00 | 0.00 | 33 | 1013.2 |
| 20260503205008 | 61 | 327 | 3.0 | 13.0 | 0.00 | 0.00 | 0.00 | 33 | 1013.2 |
| 20260503204507 | 60 | 299 | 1.0 | 8.0 | 0.00 | 0.00 | 0.00 | 33 | 1013.2 |
| 20260503203508 | 60 | 314 | 4.0 | 13.0 | 0.00 | 0.00 | 0.00 | 33 | 1013.3 |
| 20260503203007 | 60 | 311 | 2.0 | 16.0 | 0.00 | 0.00 | 0.00 | 33 | 1013.3 |
| 20260503202508 | 60 | 319 | 1.0 | 16.0 | 0.00 | 0.00 | 0.00 | 34 | 1013.3 |
| 20260503202008 | 60 | 317 | 3.0 | 17.0 | 0.00 | 0.00 | 0.00 | 33 | 1013.4 |
| 20260503201508 | 59 | 348 | 6.0 | 17.0 | 0.00 | 0.00 | 0.00 | 34 | 1013.4 |
| 20260503201007 | 59 | 307 | 0.0 | 3.0 | 0.00 | 0.00 | 0.00 | 34 | 1013.4 |
| 20260503200508 | 59 | 304 | 1.0 | 7.0 | 0.00 | 0.00 | 0.00 | 34 | 1013.6 |
| 20260503200008 | 60 | 308 | 0.0 | 6.0 | 0.00 | 0.00 | 0.00 | 34 | 1013.6 |
| 20260503195508 | 59 | 294 | 1.0 | 13.0 | 0.00 | 0.00 | 0.00 | 32 | 1013.6 |
| 20260503195007 | 60 | 294 | 4.0 | 13.0 | 0.00 | 0.00 | 0.00 | 32 | 1013.8 |
| 20260503194508 | 60 | 309 | 0.0 | 9.0 | 0.00 | 0.00 | 0.00 | 34 | 1013.8 |
| 20260503194008 | 60 | 305 | 3.0 | 12.0 | 0.00 | 0.00 | 0.00 | 34 | 1013.9 |
| 20260503193508 | 59 | 330 | 0.0 | 5.0 | 0.00 | 0.00 | 0.00 | 34 | 1013.9 |
| 20260503193008 | 59 | 334 | 5.0 | 16.0 | 0.00 | 0.00 | 0.00 | 33 | 1014.0 |
| 20260503192507 | 59 | 290 | 1.0 | 9.0 | 0.00 | 0.00 | 0.00 | 33 | 1014.0 |
| 20260503192008 | 59 | 328 | 2.0 | 12.0 | 0.00 | 0.00 | 0.00 | 32 | 1014.1 |
| 20260503191508 | 60 | 329 | 3.0 | 13.0 | 0.00 | 0.00 | 0.00 | 32 | 1014.2 |
| 20260503191008 | 60 | 294 | 3.0 | 13.0 | 0.00 | 0.00 | 0.00 | 32 | 1014.2 |
| 20260503190508 | 60 | 329 | 6.0 | 16.0 | 0.00 | 0.00 | 0.00 | 32 | 1014.2 |
| 20260503190008 | 60 | 318 | 6.0 | 16.0 | 0.00 | 0.00 | 0.00 | 34 | 1014.3 |
| 20260503185509 | 59 | 299 | 1.0 | 12.0 | 0.00 | 0.00 | 0.00 | 33 | 1014.2 |
| 20260503185008 | 59 | 293 | 5.0 | 16.0 | 0.00 | 0.00 | 0.00 | 33 | 1014.4 |
| 20260503184507 | 59 | 3 | 1.0 | 8.0 | 0.00 | 0.00 | 0.00 | 36 | 1014.4 |
| 20260503184008 | 59 | 316 | 2.0 | 13.0 | 0.00 | 0.00 | 0.00 | 32 | 1014.5 |
| 20260503183507 | 59 | 350 | 6.0 | 18.0 | 0.00 | 0.00 | 0.00 | 34 | 1014.5 |
| 20260503183007 | 59 | 323 | 0.0 | 1.0 | 0.00 | 0.00 | 0.00 | 36 | 1014.6 |
| 20260503182508 | 58 | 308 | 1.0 | 6.0 | 0.00 | 0.00 | 0.00 | 37 | 1014.6 |
| 20260503182008 | 58 | 293 | 0.0 | 13.0 | 0.00 | 0.00 | 0.00 | 34 | 1014.7 |
| 20260503181507 | 58 | 303 | 2.0 | 12.0 | 0.00 | 0.00 | 0.00 | 35 | 1014.8 |
| 20260503181007 | 58 | 280 | 2.0 | 10.0 | 0.00 | 0.00 | 0.00 | 35 | 1014.7 |
| 20260503180507 | 58 | 307 | 1.0 | 12.0 | 0.00 | 0.00 | 0.00 | 35 | 1014.7 |
| 20260503180008 | 57 | 302 | 2.0 | 13.0 | 0.00 | 0.00 | 0.00 | 35 | 1014.8 |
| 20260503175008 | 57 | 254 | 1.0 | 10.0 | 0.00 | 0.00 | 0.00 | 36 | 1015.0 |
| 20260503174508 | 57 | 296 | 2.0 | 16.0 | 0.00 | 0.00 | 0.00 | 36 | 1015.0 |
| 20260503174007 | 57 | 304 | 7.0 | 16.0 | 0.00 | 0.00 | 0.00 | 35 | 1015.0 |
| 20260503173508 | 57 | 311 | 1.0 | 9.0 | 0.00 | 0.00 | 0.00 | 36 | 1015.0 |
| 20260503173007 | 56 | 336 | 5.0 | 13.0 | 0.00 | 0.00 | 0.00 | 37 | 1015.1 |
| 20260503172508 | 56 | 284 | 3.0 | 12.0 | 0.00 | 0.00 | 0.00 | 36 | 1015.2 |
| 20260503172007 | 56 | 353 | 1.0 | 15.0 | 0.00 | 0.00 | 0.00 | 37 | 1015.1 |
| 20260503171007 | 56 | 291 | 3.0 | 13.0 | 0.00 | 0.00 | 0.00 | 38 | 1015.1 |
| 20260503151007 | 51 | 357 | 3.0 | 15.0 | 0.00 | 0.00 | 0.00 | 44 | 1016.4 |
| 20260503150507 | 50 | 335 | 1.0 | 13.0 | 0.00 | 0.00 | 0.00 | 46 | 1016.4 |
| 20260503131007 | 45 | 323 | 3.0 | 9.0 | 0.00 | 0.00 | 0.00 | 58 | 1016.8 |
| 20260503110506 | 36 | 318 | 0.0 | 0.0 | 0.00 | 0.00 | 0.00 | 78 | 1016.0 |
| 20260503090505 | 37 | 315 | 0.0 | 0.0 | 0.00 | 0.00 | 0.00 | 75 | 1014.5 |
| 20260503081506 | 38 | 272 | 0.0 | 0.0 | 0.00 | 0.00 | 0.00 | 75 | 1014.4 |
| 20260503081005 | 38 | 271 | 0.0 | 0.0 | 0.00 | 0.00 | 0.00 | 75 | 1014.4 |
| 20260503080506 | 38 | 271 | 0.0 | 0.0 | 0.00 | 0.00 | 0.00 | 75 | 1014.4 |
| 20260503072505 | 38 | 292 | 0.0 | 0.0 | 0.00 | 0.00 | 0.00 | 76 | 1014.0 |
| 20260503072005 | 38 | 292 | 0.0 | 0.0 | 0.00 | 0.00 | 0.00 | 76 | 1013.9 |
| 20260503071005 | 38 | 292 | 0.0 | 0.0 | 0.00 | 0.00 | 0.00 | 76 | 1013.9 |
| 20260503070505 | 38 | 294 | 0.0 | 0.0 | 0.00 | 0.00 | 0.00 | 76 | 1013.8 |